[[{"header":{"parameterUnit":"m.s-1","parameterCategory":1,"la1":30.2991,"la2":30.254,"lo1":-89.0895,"lo2":-89.0444,"dy":0.0017,"dx":0.0017,"nx":28,"ny":28,"refTime":"2025-11-27T03:00:00:Z","depth":0,"parameterNumber":2,"parameterNumberName":"U-component_of_WINDS"},"data":[0,0,0,0,0,0,0,0,0,0,0,0,0,0,0,0,0,0,0,0,0,0,0,0,0,0,0,0,0,0,0,0,0,0,0,0,0,0,0,0,0,0,0,0,0,0,0,0,0,0,0,0,0,0,0,0,0,0,0.7348,0.7348,0,0.7319,0.7318,0.7318,0.7308,0.7308,0.7309,0.7309,0.7276,0.7275,0.7274,0,0,0,0,0,0,0,0,0,0,0,0,0,0.7397,0.7396,0.7349,0.7348,0.7348,0.7319,0.7318,0.7318,0.7308,0.7308,0.7309,0.7309,0.7277,0.7275,0.7274,0,0,0,0,0,0,0,0,0,0,0,0,0,0.7372,0.7395,0.7349,0.734,0.7338,0.7319,0.7318,0.7318,0.7308,0.7308,0.7309,0.7309,0.7277,0.7276,0.7274,0.7261,0,0,0.727,0.7269,0,0,0,0,0,0,0,0,0.7373,0.737,0.7341,0.734,0.7339,0.7317,0.7323,0.7299,0.7308,0.732,0.7309,0.7309,0.729,0.7287,0.7281,0.7259,0.7258,0.7269,0.7268,0.7268,0.7267,0,0,0,0,0,0,0,0.7375,0.7372,0.7337,0.7341,0.7339,0.7337,0.7333,0.7319,0.7304,0.7319,0.7318,0.7315,0.7289,0.7282,0.728,0.7257,0.7269,0.7268,0.7267,0.7267,0.7224,0.7224,0,0,0,0,0,0,0.7379,0.7373,0.7338,0.7336,0.7357,0.7336,0.7332,0.7324,0.7304,0.7301,0.7314,0.7314,0.7285,0.7282,0.7279,0.7263,0.7268,0.7266,0.7266,0.7224,0.7224,0.7224,0,0,0,0,0,0,0.738,0.7376,0.7339,0.7354,0.7349,0.7335,0.7326,0.7323,0.7317,0.7301,0.7298,0.731,0.7285,0.7281,0.7266,0.7261,0.7266,0.7264,0.7225,0.7224,0.7224,0.7229,0,0,0,0,0,0,0.7381,0.7376,0.7371,0.7354,0.7349,0.7326,0.7325,0.7323,0.7314,0.7314,0.7296,0.7294,0.7285,0.7268,0.7264,0.7259,0.7263,0.7225,0.7225,0.7224,0.7229,0.7229,0.7229,0,0,0,0,0,0.7383,0.7373,0.737,0.7366,0.7342,0.7326,0.7323,0.7313,0.7314,0.7309,0.7299,0.7294,0.7263,0.7267,0.7262,0.7257,0.7225,0.7225,0.7224,0.723,0.7229,0.7229,0,0,0,0,0,0,0.7388,0.737,0.7368,0.7352,0.7341,0.7324,0.7317,0.7313,0.7301,0.7301,0.7289,0.7285,0.7271,0.7262,0.7267,0.7243,0.7244,0.7242,0.7249,0.7249,0.7249,0.7251,0.7262,0,0,0,0,0,0.7388,0.7376,0.7361,0.7349,0.7344,0.7332,0.7324,0.7318,0.7306,0.7301,0.7289,0.7277,0.7265,0.7256,0.7244,0.7229,0.7225,0.7223,0.7223,0.7223,0.7221,0.7213,0.7213,0.7222,0.7222,0.7222,0,0,0.7386,0.7375,0.7368,0.735,0.734,0.7329,0.7327,0.7315,0.7307,0.7298,0.7283,0.7275,0.7261,0.7246,0.7238,0.7238,0.7218,0.7222,0.7222,0.7221,0.7213,0.7212,0.7211,0.7222,0.7222,0.7222,0,0,0.7377,0.7368,0.7357,0.7348,0.7334,0.7326,0.7324,0.7308,0.7303,0.7288,0.7282,0.7272,0.725,0.724,0.7233,0.7223,0.7218,0.7219,0.7217,0.721,0.7209,0.7208,0.7205,0.7204,0.7218,0.7218,0.7218,0,0.7377,0.736,0.7351,0.734,0.7332,0.7326,0.7315,0.7306,0.7289,0.7284,0.7284,0.7258,0.7247,0.723,0.7228,0.7222,0.7219,0.722,0.721,0.7209,0.7208,0.7205,0.7204,0.7218,0.7218,0.7218,0.7218,0,0.736,0.7348,0.7341,0.7326,0.7317,0.7306,0.7296,0.7289,0.7284,0.7276,0.7262,0.725,0.7235,0.7231,0.7226,0.7214,0.7214,0.7212,0.7212,0.7208,0.7204,0.7203,0.7218,0.7218,0.7218,0.7218,0,0,0.7352,0.7334,0.7331,0.7324,0.731,0.73,0.7289,0.7276,0.727,0.7259,0.7249,0.7232,0.7231,0.7222,0.7216,0.721,0.7203,0.7209,0.7208,0.7208,0.719,0.7191,0.7189,0.7201,0.72,0.72,0.7191,0,0.7341,0.7321,0.7314,0.7298,0.7288,0.7283,0.7273,0.7263,0.7256,0.7246,0.7238,0.7227,0.7226,0.7221,0.7214,0.7205,0.7199,0.7206,0.7191,0.7191,0.7195,0.7188,0.7188,0.718,0.719,0.7189,0.7189,0,0.7325,0.7315,0.7298,0.7286,0.7281,0.7273,0.7261,0.7251,0.724,0.7236,0.7227,0.7222,0.7211,0.7212,0.7197,0.7201,0.7195,0.719,0.719,0.7187,0.7189,0.7185,0.7177,0.7176,0.7187,0.7187,0.7187,0,0.7321,0.7303,0.7291,0.7285,0.7271,0.7265,0.7259,0.7248,0.7241,0.7231,0.7226,0.7214,0.7207,0.7199,0.7191,0.7192,0.7176,0.7176,0.7172,0.7172,0.7167,0.7167,0.7158,0.7164,0.7164,0.7164,0.7164,0,0.7309,0.7299,0.7289,0.7281,0.727,0.7263,0.7252,0.7245,0.7236,0.7227,0.7222,0.7213,0.7204,0.7194,0.7188,0.7176,0.7173,0.7169,0.7168,0.7169,0.717,0.7164,0.7165,0.7164,0.7164,0.7164,0.7164,0,0.7302,0.7295,0.7281,0.7269,0.7266,0.7258,0.7248,0.7241,0.7235,0.7223,0.722,0.721,0.7199,0.7191,0.7176,0.7172,0.7159,0.7158,0.7163,0.7162,0.7158,0.7158,0.7144,0.7142,0.715,0.715,0.715,0,0.7294,0.7287,0.7275,0.7269,0.7263,0.7253,0.7246,0.724,0.7233,0.7221,0.7215,0.7204,0.7194,0.7177,0.7168,0.7157,0.7155,0.7151,0.7153,0.7155,0.7154,0.7155,0.7154,0.715,0.715,0.715,0.715,0,0.7282,0.728,0.727,0.726,0.7253,0.7244,0.7235,0.7231,0.7223,0.7215,0.7204,0.7197,0.7183,0.7172,0.7161,0.7154,0.715,0.715,0.7148,0.7149,0.7153,0.7151,0.7162,0.7149,0.7149,0.7149,0.7149,0.715,0.7274,0.7268,0.7259,0.7249,0.7242,0.7235,0.7227,0.7221,0.7212,0.72,0.7197,0.7186,0.7176,0.7161,0.7154,0.7146,0.7146,0.7143,0.7142,0.7141,0.7142,0.7155,0.7144,0.7144,0.7144,0.7144,0.7144,0,0.7261,0.7256,0.7247,0.7236,0.7229,0.7228,0.7219,0.7212,0.7203,0.7195,0.7186,0.7174,0.7164,0.7155,0.7145,0.714,0.7138,0.7137,0.7137,0.7136,0.7142,0.7145,0.7139,0.7139,0.7139,0.7139,0.7139,0.7139,0.7254,0.7243,0.7239,0.7225,0.722,0.7209,0.7204,0.7198,0.7191,0.7178,0.717,0.7165,0.7157,0.7146,0.7137,0.7135,0.7131,0.7131,0.7128,0.7134,0.7135,0.7135,0.7138,0.713,0.713,0.7122,0.7122,0.7122]},{"header":{"parameterUnit":"m.s-1","parameterCategory":1,"la1":30.2991,"la2":30.254,"lo1":-89.0895,"lo2":-89.0444,"dy":0.0017,"dx":0.0017,"nx":28,"ny":28,"refTime":"2025-11-27T03:00:00:Z","depth":0,"parameterNumber":3,"parameterNumberName":"V-component_of_WINDS"},"data":[0,0,0,0,0,0,0,0,0,0,0,0,0,0,0,0,0,0,0,0,0,0,0,0,0,0,0,0,0,0,0,0,0,0,0,0,0,0,0,0,0,0,0,0,0,0,0,0,0,0,0,0,0,0,0,0,0,0,-6.0066,-6.0067,0,-6.0212,-6.0214,-6.0215,-6.0141,-6.0137,-6.0133,-6.0129,-6.0274,-6.0281,-6.0289,0,0,0,0,0,0,0,0,0,0,0,0,0,-5.9716,-5.9722,-6.0066,-6.0067,-6.0069,-6.0212,-6.0214,-6.0216,-6.0141,-6.0137,-6.0132,-6.0128,-6.0272,-6.028,-6.0289,0,0,0,0,0,0,0,0,0,0,0,0,0,-5.9865,-5.9725,-6.0065,-6.0049,-6.0049,-6.0212,-6.0214,-6.0216,-6.0142,-6.0137,-6.0131,-6.0125,-6.0269,-6.0279,-6.029,-6.0475,0,0,-6.0325,-6.0329,0,0,0,0,0,0,0,0,-5.9857,-5.9878,-6.005,-6.0051,-6.0051,-6.0152,-6.0143,-6.0303,-6.0144,-6.0107,-6.0129,-6.0123,-6.0238,-6.0251,-6.0291,-6.0482,-6.0488,-6.0326,-6.0332,-6.0337,-6.034,0,0,0,0,0,0,0,-5.9847,-5.9871,-6.0123,-6.0052,-6.0053,-6.0033,-6.0048,-6.0173,-6.0203,-6.011,-6.0105,-6.0123,-6.0237,-6.0281,-6.0294,-6.049,-6.0325,-6.0335,-6.0342,-6.0346,-6.0838,-6.0844,0,0,0,0,0,0,-5.9838,-5.9863,-6.0119,-6.0128,-5.9938,-6.0044,-6.0061,-6.0126,-6.0201,-6.0207,-6.0128,-6.0119,-6.0264,-6.0281,-6.0299,-6.0519,-6.0337,-6.0348,-6.0354,-6.0832,-6.084,-6.0846,0,0,0,0,0,0,-5.9831,-5.9861,-6.0113,-5.9994,-6.0025,-6.0056,-6.013,-6.0132,-6.0175,-6.0215,-6.0219,-6.0168,-6.026,-6.0283,-6.0432,-6.0523,-6.0353,-6.0363,-6.0824,-6.0834,-6.0843,-6.0963,0,0,0,0,0,0,-5.9821,-5.9859,-5.9931,-5.9997,-6.0032,-6.0246,-6.0135,-6.0139,-6.0195,-6.0185,-6.0253,-6.0259,-6.0258,-6.0416,-6.0443,-6.0536,-6.0371,-6.0816,-6.0829,-6.084,-6.0951,-6.0975,-6.0996,0,0,0,0,0,-5.9809,-5.9958,-5.9935,-5.9966,-6.0122,-6.0251,-6.0271,-6.0268,-6.0203,-6.0274,-6.03,-6.0257,-6.0509,-6.0432,-6.0462,-6.0559,-6.0811,-6.0825,-6.0839,-6.094,-6.097,-6.0995,0,0,0,0,0,0,-5.99,-5.9966,-5.9942,-6.0117,-6.0179,-6.0238,-6.0328,-6.0299,-6.038,-6.0367,-6.0358,-6.0374,-6.0528,-6.0558,-6.0471,-6.0741,-6.0649,-6.0671,-6.0716,-6.0745,-6.0767,-6.0756,-6.0381,0,0,0,0,0,-5.9941,-6.0042,-6.0093,-6.0243,-6.0276,-6.0297,-6.0353,-6.0345,-6.0409,-6.0434,-6.047,-6.0532,-6.0625,-6.0686,-6.0774,-6.0954,-6.0967,-6.1036,-6.1059,-6.1077,-6.1095,-6.1192,-6.1223,-6.0894,-6.0893,-6.0893,0,0,-6.0026,-6.0075,-6.0139,-6.0263,-6.031,-6.0413,-6.032,-6.0433,-6.0508,-6.045,-6.0594,-6.0623,-6.0691,-6.0856,-6.0931,-6.0886,-6.1189,-6.1095,-6.111,-6.1118,-6.121,-6.1241,-6.1269,-6.0903,-6.0902,-6.09,0,0,-6.0234,-6.0281,-6.0411,-6.0461,-6.0534,-6.0547,-6.0578,-6.0643,-6.066,-6.0804,-6.0763,-6.0851,-6.1012,-6.1062,-6.1109,-6.1335,-6.1298,-6.1364,-6.1482,-6.1577,-6.1603,-6.1626,-6.1706,-6.1735,-6.1382,-6.1382,-6.1382,0,-6.033,-6.0485,-6.0481,-6.0598,-6.0653,-6.0607,-6.0737,-6.0785,-6.0883,-6.0921,-6.087,-6.107,-6.1113,-6.1289,-6.1344,-6.1384,-6.1418,-6.1356,-6.16,-6.1623,-6.1644,-6.172,-6.1751,-6.139,-6.1389,-6.1388,-6.1387,0,-6.0599,-6.0708,-6.0803,-6.0901,-6.0967,-6.109,-6.1102,-6.1169,-6.1155,-6.1173,-6.1319,-6.1369,-6.1466,-6.1507,-6.1494,-6.1681,-6.1651,-6.16,-6.1508,-6.1683,-6.1754,-6.1784,-6.14,-6.1398,-6.1395,-6.1394,0,0,-6.0869,-6.0963,-6.0998,-6.1042,-6.1119,-6.1202,-6.1322,-6.1418,-6.1476,-6.1544,-6.1644,-6.1781,-6.1734,-6.1787,-6.1779,-6.1862,-6.2038,-6.1801,-6.1802,-6.1843,-6.2246,-6.2284,-6.2318,-6.2014,-6.2019,-6.2024,-6.224,0,-6.1082,-6.1294,-6.1293,-6.1489,-6.1588,-6.1546,-6.165,-6.1708,-6.1728,-6.1813,-6.1834,-6.1932,-6.1863,-6.1894,-6.1975,-6.2,-6.2119,-6.1984,-6.2105,-6.2109,-6.2089,-6.2356,-6.2396,-6.2599,-6.2268,-6.2273,-6.2277,0,-6.1359,-6.1438,-6.1645,-6.1707,-6.1749,-6.1843,-6.1931,-6.2014,-6.2078,-6.2087,-6.2146,-6.2126,-6.2246,-6.215,-6.2315,-6.2223,-6.2272,-6.2292,-6.2299,-6.231,-6.2203,-6.2374,-6.2663,-6.2693,-6.2321,-6.2317,-6.2314,0,-6.1534,-6.1693,-6.1837,-6.1875,-6.1952,-6.2019,-6.2054,-6.2113,-6.2171,-6.2247,-6.2284,-6.2373,-6.2421,-6.249,-6.2493,-6.2423,-6.2659,-6.2563,-6.2668,-6.2668,-6.2719,-6.2716,-6.3021,-6.2752,-6.2751,-6.2751,-6.275,0,-6.1772,-6.19,-6.1917,-6.2005,-6.2146,-6.2143,-6.2282,-6.231,-6.2363,-6.2455,-6.2423,-6.2509,-6.2508,-6.2595,-6.2598,-6.2734,-6.2756,-6.2765,-6.2764,-6.2768,-6.2767,-6.28,-6.2786,-6.2759,-6.2757,-6.2755,-6.2754,0,-6.1992,-6.2009,-6.2163,-6.2224,-6.2242,-6.2343,-6.2394,-6.2477,-6.2494,-6.2611,-6.2638,-6.2664,-6.2765,-6.2775,-6.2892,-6.2894,-6.3058,-6.3042,-6.3037,-6.3034,-6.3138,-6.3128,-6.3474,-6.3519,-6.3221,-6.3224,-6.3226,0,-6.2143,-6.2241,-6.2312,-6.2372,-6.2412,-6.2509,-6.2568,-6.2568,-6.263,-6.2711,-6.2784,-6.2883,-6.2962,-6.3125,-6.3153,-6.3242,-6.3228,-6.3343,-6.3241,-6.3242,-6.3229,-6.3223,-6.3233,-6.3363,-6.3366,-6.3369,-6.3371,0,-6.2409,-6.2412,-6.25,-6.2591,-6.2664,-6.2735,-6.2801,-6.2852,-6.2859,-6.2931,-6.3036,-6.3097,-6.3217,-6.3315,-6.3403,-6.3436,-6.3405,-6.3403,-6.3432,-6.3437,-6.343,-6.3435,-6.3091,-6.3395,-6.3392,-6.3391,-6.3389,-6.3388,-6.2599,-6.2683,-6.2747,-6.2846,-6.2896,-6.2959,-6.304,-6.3068,-6.3156,-6.3255,-6.3249,-6.3364,-6.3424,-6.3539,-6.3579,-6.3667,-6.3628,-6.367,-6.3681,-6.3691,-6.3702,-6.3416,-6.3683,-6.3682,-6.3682,-6.3681,-6.3681,0,-6.2862,-6.2901,-6.2992,-6.3087,-6.3165,-6.313,-6.3202,-6.3268,-6.3371,-6.343,-6.3509,-6.3628,-6.3723,-6.3759,-6.3851,-6.3914,-6.3902,-6.3938,-6.3934,-6.3942,-6.3731,-6.3697,-6.3947,-6.3947,-6.3947,-6.3947,-6.3946,-6.3946,-6.3009,-6.315,-6.3161,-6.3326,-6.3363,-6.3477,-6.3521,-6.3578,-6.3626,-6.3761,-6.3841,-6.3864,-6.3914,-6.4009,-6.4094,-6.4101,-6.4136,-6.4179,-6.4181,-6.3983,-6.3957,-6.3931,-6.3899,-6.4187,-6.4187,-6.4383,-6.4385,-6.4387]}]]